segment_id,date_local,uptime,ped_lft,ped_rgt,ped_total,bike_lft,bike_rgt,bike_total,car_lft,car_rgt,car_total,heavy_lft,heavy_rgt,heavy_total,v85,car_speed0,car_speed10,car_speed20,car_speed30,car_speed40,car_speed50,car_speed60,car_speed70
100024661,2021-02-01 00:00,1.0,,,,8,11,19,,,,,,,
100024661,2021-02-01 01:00,1.0,,,,2,4,6,,,,,,,
100024661,2021-02-01 02:00,1.0,,,,5,3,8,,,,,,,
100024661,2021-02-01 03:00,1.0,,,,2,2,4,,,,,,,
100024661,2021-02-01 04:00,1.0,,,,1,6,7,,,,,,,
100024661,2021-02-01 05:00,1.0,,,,7,13,20,,,,,,,
100024661,2021-02-01 06:00,1.0,,,,17,50,67,,,,,,,
100024661,2021-02-01 07:00,1.0,,,,54,101,155,,,,,,,
100024661,2021-02-01 08:00,1.0,,,,129,208,337,,,,,,,
100024661,2021-02-01 09:00,1.0,,,,129,198,327,,,,,,,
100024661,2021-02-01 10:00,1.0,,,,67,106,173,,,,,,,
100024661,2021-02-01 11:00,1.0,,,,61,85,146,,,,,,,
100024661,2021-02-01 12:00,1.0,,,,112,95,207,,,,,,,
100024661,2021-02-01 13:00,1.0,,,,110,126,236,,,,,,,
100024661,2021-02-01 14:00,1.0,,,,117,119,236,,,,,,,
100024661,2021-02-01 15:00,1.0,,,,145,107,252,,,,,,,
100024661,2021-02-01 16:00,1.0,,,,156,124,280,,,,,,,
100024661,2021-02-01 17:00,1.0,,,,195,157,352,,,,,,,
100024661,2021-02-01 18:00,1.0,,,,214,148,362,,,,,,,
100024661,2021-02-01 19:00,1.0,,,,141,89,230,,,,,,,
100024661,2021-02-01 20:00,1.0,,,,76,64,140,,,,,,,
100024661,2021-02-01 21:00,1.0,,,,41,28,69,,,,,,,
100024661,2021-02-01 22:00,1.0,,,,34,18,52,,,,,,,
100024661,2021-02-01 23:00,1.0,,,,8,19,27,,,,,,,
100024661,2021-02-02 00:00,1.0,,,,9,11,20,,,,,,,
100024661,2021-02-02 01:00,1.0,,,,5,4,9,,,,,,,
100024661,2021-02-02 02:00,1.0,,,,0,2,2,,,,,,,
100024661,2021-02-02 03:00,1.0,,,,1,3,4,,,,,,,
100024661,2021-02-02 04:00,1.0,,,,1,3,4,,,,,,,
100024661,2021-02-02 05:00,1.0,,,,8,15,23,,,,,,,
100024661,2021-02-02 06:00,1.0,,,,28,47,75,,,,,,,
100024661,2021-02-02 07:00,1.0,,,,64,101,165,,,,,,,
100024661,2021-02-02 08:00,1.0,,,,152,250,402,,,,,,,
100024661,2021-02-02 09:00,1.0,,,,145,224,369,,,,,,,
100024661,2021-02-02 10:00,1.0,,,,101,91,192,,,,,,,
100024661,2021-02-02 11:00,1.0,,,,86,73,159,,,,,,,
100024661,2021-02-02 12:00,1.0,,,,92,87,179,,,,,,,
100024661,2021-02-02 13:00,1.0,,,,106,122,228,,,,,,,
100024661,2021-02-02 14:00,1.0,,,,126,119,245,,,,,,,
100024661,2021-02-02 15:00,1.0,,,,151,136,287,,,,,,,
100024661,2021-02-02 16:00,1.0,,,,180,117,297,,,,,,,
100024661,2021-02-02 17:00,1.0,,,,218,163,381,,,,,,,
100024661,2021-02-02 18:00,1.0,,,,225,162,387,,,,,,,
100024661,2021-02-02 19:00,1.0,,,,139,132,271,,,,,,,
100024661,2021-02-02 20:00,1.0,,,,75,58,133,,,,,,,
100024661,2021-02-02 21:00,1.0,,,,43,46,89,,,,,,,
100024661,2021-02-02 22:00,1.0,,,,37,23,60,,,,,,,
100024661,2021-02-02 23:00,1.0,,,,22,24,46,,,,,,,
100024661,2021-02-03 00:00,1.0,,,,15,14,29,,,,,,,
100024661,2021-02-03 01:00,1.0,,,,5,5,10,,,,,,,
100024661,2021-02-03 02:00,1.0,,,,3,2,5,,,,,,,
100024661,2021-02-03 03:00,1.0,,,,2,3,5,,,,,,,
100024661,2021-02-03 04:00,1.0,,,,0,6,6,,,,,,,
100024661,2021-02-03 05:00,1.0,,,,5,18,23,,,,,,,
100024661,2021-02-03 06:00,1.0,,,,24,41,65,,,,,,,
100024661,2021-02-03 07:00,1.0,,,,47,93,140,,,,,,,
100024661,2021-02-03 08:00,1.0,,,,98,155,253,,,,,,,
100024661,2021-02-03 09:00,1.0,,,,129,184,313,,,,,,,
100024661,2021-02-03 10:00,1.0,,,,102,88,190,,,,,,,
100024661,2021-02-03 11:00,1.0,,,,80,87,167,,,,,,,
100024661,2021-02-03 12:00,1.0,,,,97,105,202,,,,,,,
100024661,2021-02-03 13:00,1.0,,,,119,122,241,,,,,,,
100024661,2021-02-03 14:00,1.0,,,,125,150,275,,,,,,,
100024661,2021-02-03 15:00,1.0,,,,147,125,272,,,,,,,
100024661,2021-02-03 16:00,1.0,,,,173,120,293,,,,,,,
100024661,2021-02-03 17:00,1.0,,,,143,116,259,,,,,,,
100024661,2021-02-03 18:00,1.0,,,,173,120,293,,,,,,,
100024661,2021-02-03 19:00,1.0,,,,120,92,212,,,,,,,
100024661,2021-02-03 20:00,1.0,,,,70,47,117,,,,,,,
100024661,2021-02-03 21:00,1.0,,,,38,42,80,,,,,,,
100024661,2021-02-03 22:00,1.0,,,,34,23,57,,,,,,,
100024661,2021-02-03 23:00,1.0,,,,14,24,38,,,,,,,
100024661,2021-02-04 00:00,1.0,,,,9,11,20,,,,,,,
100024661,2021-02-04 01:00,1.0,,,,6,8,14,,,,,,,
100024661,2021-02-04 02:00,1.0,,,,3,3,6,,,,,,,
100024661,2021-02-04 03:00,1.0,,,,6,0,6,,,,,,,
100024661,2021-02-04 04:00,1.0,,,,1,2,3,,,,,,,
100024661,2021-02-04 05:00,1.0,,,,10,8,18,,,,,,,
100024661,2021-02-04 06:00,1.0,,,,29,47,76,,,,,,,
100024661,2021-02-04 07:00,1.0,,,,59,106,165,,,,,,,
100024661,2021-02-04 08:00,1.0,,,,131,228,359,,,,,,,
100024661,2021-02-04 09:00,1.0,,,,161,186,347,,,,,,,
100024661,2021-02-04 10:00,1.0,,,,89,99,188,,,,,,,
100024661,2021-02-04 11:00,1.0,,,,89,102,191,,,,,,,
100024661,2021-02-04 12:00,1.0,,,,119,102,221,,,,,,,
100024661,2021-02-04 13:00,1.0,,,,100,123,223,,,,,,,
100024661,2021-02-04 14:00,1.0,,,,112,126,238,,,,,,,
100024661,2021-02-04 15:00,1.0,,,,159,127,286,,,,,,,
100024661,2021-02-04 16:00,1.0,,,,189,113,302,,,,,,,
100024661,2021-02-04 17:00,1.0,,,,220,145,365,,,,,,,
100024661,2021-02-04 18:00,1.0,,,,233,176,409,,,,,,,
100024661,2021-02-04 19:00,1.0,,,,139,151,290,,,,,,,
100024661,2021-02-04 20:00,1.0,,,,83,70,153,,,,,,,
100024661,2021-02-04 21:00,1.0,,,,52,57,109,,,,,,,
100024661,2021-02-04 22:00,1.0,,,,32,35,67,,,,,,,
100024661,2021-02-04 23:00,1.0,,,,16,24,40,,,,,,,
100024661,2021-02-05 00:00,1.0,,,,16,16,32,,,,,,,
100024661,2021-02-05 01:00,1.0,,,,12,4,16,,,,,,,
100024661,2021-02-05 02:00,1.0,,,,1,4,5,,,,,,,
100024661,2021-02-05 03:00,1.0,,,,3,3,6,,,,,,,
100024661,2021-02-05 04:00,1.0,,,,1,2,3,,,,,,,
100024661,2021-02-05 05:00,1.0,,,,9,13,22,,,,,,,
100024661,2021-02-05 06:00,1.0,,,,31,35,66,,,,,,,
100024661,2021-02-05 07:00,1.0,,,,48,104,152,,,,,,,
100024661,2021-02-05 08:00,1.0,,,,125,208,333,,,,,,,
100024661,2021-02-05 09:00,1.0,,,,145,196,341,,,,,,,
100024661,2021-02-05 10:00,1.0,,,,84,111,195,,,,,,,
100024661,2021-02-05 11:00,1.0,,,,106,121,227,,,,,,,
100024661,2021-02-05 12:00,1.0,,,,121,116,237,,,,,,,
100024661,2021-02-05 13:00,1.0,,,,153,122,275,,,,,,,
100024661,2021-02-05 14:00,1.0,,,,147,138,285,,,,,,,
100024661,2021-02-05 15:00,1.0,,,,155,151,306,,,,,,,
100024661,2021-02-05 16:00,1.0,,,,179,131,310,,,,,,,
100024661,2021-02-05 17:00,1.0,,,,145,155,300,,,,,,,
100024661,2021-02-05 18:00,1.0,,,,155,141,296,,,,,,,
100024661,2021-02-05 19:00,1.0,,,,120,110,230,,,,,,,
100024661,2021-02-05 20:00,1.0,,,,63,44,107,,,,,,,
100024661,2021-02-05 21:00,1.0,,,,43,39,82,,,,,,,
100024661,2021-02-05 22:00,1.0,,,,36,18,54,,,,,,,
100024661,2021-02-05 23:00,1.0,,,,24,24,48,,,,,,,
100024661,2021-02-06 00:00,1.0,,,,17,8,25,,,,,,,
100024661,2021-02-06 01:00,1.0,,,,13,7,20,,,,,,,
100024661,2021-02-06 02:00,1.0,,,,6,4,10,,,,,,,
100024661,2021-02-06 03:00,1.0,,,,5,4,9,,,,,,,
100024661,2021-02-06 04:00,1.0,,,,3,0,3,,,,,,,
100024661,2021-02-06 05:00,1.0,,,,2,2,4,,,,,,,
100024661,2021-02-06 06:00,1.0,,,,11,5,16,,,,,,,
100024661,2021-02-06 07:00,1.0,,,,8,1,9,,,,,,,
100024661,2021-02-06 08:00,1.0,,,,12,8,20,,,,,,,
100024661,2021-02-06 09:00,1.0,,,,20,16,36,,,,,,,
100024661,2021-02-06 10:00,1.0,,,,35,29,64,,,,,,,
100024661,2021-02-06 11:00,1.0,,,,43,43,86,,,,,,,
100024661,2021-02-06 12:00,1.0,,,,60,59,119,,,,,,,
100024661,2021-02-06 13:00,1.0,,,,71,85,156,,,,,,,
100024661,2021-02-06 14:00,1.0,,,,98,97,195,,,,,,,
100024661,2021-02-06 15:00,1.0,,,,81,109,190,,,,,,,
100024661,2021-02-06 16:00,1.0,,,,75,106,181,,,,,,,
100024661,2021-02-06 17:00,1.0,,,,67,72,139,,,,,,,
100024661,2021-02-06 18:00,1.0,,,,65,83,148,,,,,,,
100024661,2021-02-06 19:00,1.0,,,,52,44,96,,,,,,,
100024661,2021-02-06 20:00,1.0,,,,46,28,74,,,,,,,
100024661,2021-02-06 21:00,1.0,,,,18,31,49,,,,,,,
100024661,2021-02-06 22:00,1.0,,,,30,15,45,,,,,,,
100024661,2021-02-06 23:00,1.0,,,,17,10,27,,,,,,,
100024661,2021-02-07 00:00,1.0,,,,13,15,28,,,,,,,
100024661,2021-02-07 01:00,1.0,,,,7,15,22,,,,,,,
100024661,2021-02-07 02:00,1.0,,,,6,6,12,,,,,,,
100024661,2021-02-07 03:00,1.0,,,,2,3,5,,,,,,,
100024661,2021-02-07 04:00,1.0,,,,2,2,4,,,,,,,
100024661,2021-02-07 05:00,1.0,,,,2,1,3,,,,,,,
100024661,2021-02-07 06:00,1.0,,,,3,1,4,,,,,,,
100024661,2021-02-07 07:00,1.0,,,,5,2,7,,,,,,,
100024661,2021-02-07 08:00,1.0,,,,5,9,14,,,,,,,
100024661,2021-02-07 09:00,1.0,,,,10,9,19,,,,,,,
100024661,2021-02-07 10:00,1.0,,,,16,11,27,,,,,,,
100024661,2021-02-07 11:00,1.0,,,,11,11,22,,,,,,,
100024661,2021-02-07 12:00,1.0,,,,12,15,27,,,,,,,
100024661,2021-02-07 13:00,1.0,,,,10,12,22,,,,,,,
100024661,2021-02-07 14:00,1.0,,,,13,6,19,,,,,,,
100024661,2021-02-07 15:00,1.0,,,,17,11,28,,,,,,,
100024661,2021-02-07 16:00,1.0,,,,19,21,40,,,,,,,
100024661,2021-02-07 17:00,1.0,,,,17,12,29,,,,,,,
100024661,2021-02-07 18:00,1.0,,,,16,10,26,,,,,,,
100024661,2021-02-07 19:00,1.0,,,,14,10,24,,,,,,,
100024661,2021-02-07 20:00,1.0,,,,8,2,10,,,,,,,
100024661,2021-02-07 21:00,1.0,,,,9,6,15,,,,,,,
100024661,2021-02-07 22:00,1.0,,,,10,6,16,,,,,,,
100024661,2021-02-07 23:00,1.0,,,,6,0,6,,,,,,,
100024661,2021-02-08 00:00,1.0,,,,2,4,6,,,,,,,
100024661,2021-02-08 01:00,1.0,,,,0,4,4,,,,,,,
100024661,2021-02-08 02:00,1.0,,,,0,0,0,,,,,,,
100024661,2021-02-08 03:00,1.0,,,,2,0,2,,,,,,,
100024661,2021-02-08 04:00,1.0,,,,2,5,7,,,,,,,
100024661,2021-02-08 05:00,1.0,,,,4,10,14,,,,,,,
100024661,2021-02-08 06:00,1.0,,,,9,17,26,,,,,,,
100024661,2021-02-08 07:00,1.0,,,,27,28,55,,,,,,,
100024661,2021-02-08 08:00,1.0,,,,42,83,125,,,,,,,
100024661,2021-02-08 09:00,1.0,,,,60,71,131,,,,,,,
100024661,2021-02-08 10:00,1.0,,,,27,35,62,,,,,,,
100024661,2021-02-08 11:00,1.0,,,,24,18,42,,,,,,,
100024661,2021-02-08 12:00,1.0,,,,25,14,39,,,,,,,
100024661,2021-02-08 13:00,1.0,,,,23,13,36,,,,,,,
100024661,2021-02-08 14:00,1.0,,,,23,4,27,,,,,,,
100024661,2021-02-08 15:00,1.0,,,,25,10,35,,,,,,,
100024661,2021-02-08 16:00,1.0,,,,29,5,34,,,,,,,
100024661,2021-02-08 17:00,1.0,,,,37,9,46,,,,,,,
100024661,2021-02-08 18:00,1.0,,,,39,15,54,,,,,,,
100024661,2021-02-08 19:00,1.0,,,,35,20,55,,,,,,,
100024661,2021-02-08 20:00,1.0,,,,21,6,27,,,,,,,
100024661,2021-02-08 21:00,1.0,,,,13,4,17,,,,,,,
100024661,2021-02-08 22:00,1.0,,,,5,4,9,,,,,,,
100024661,2021-02-08 23:00,1.0,,,,5,6,11,,,,,,,
100024661,2021-02-09 00:00,1.0,,,,3,1,4,,,,,,,
100024661,2021-02-09 01:00,1.0,,,,0,0,0,,,,,,,
100024661,2021-02-09 02:00,1.0,,,,1,0,1,,,,,,,
100024661,2021-02-09 03:00,1.0,,,,1,0,1,,,,,,,
100024661,2021-02-09 04:00,1.0,,,,1,0,1,,,,,,,
100024661,2021-02-09 05:00,1.0,,,,3,1,4,,,,,,,
100024661,2021-02-09 06:00,1.0,,,,7,4,11,,,,,,,
100024661,2021-02-09 07:00,1.0,,,,16,10,26,,,,,,,
100024661,2021-02-09 08:00,1.0,,,,38,31,69,,,,,,,
100024661,2021-02-09 09:00,1.0,,,,27,31,58,,,,,,,
100024661,2021-02-09 10:00,1.0,,,,22,22,44,,,,,,,
100024661,2021-02-09 11:00,1.0,,,,23,15,38,,,,,,,
100024661,2021-02-09 12:00,1.0,,,,28,16,44,,,,,,,
100024661,2021-02-09 13:00,1.0,,,,31,30,61,,,,,,,
100024661,2021-02-09 14:00,1.0,,,,30,24,54,,,,,,,
100024661,2021-02-09 15:00,1.0,,,,41,26,67,,,,,,,
100024661,2021-02-09 16:00,1.0,,,,30,24,54,,,,,,,
100024661,2021-02-09 17:00,1.0,,,,33,28,61,,,,,,,
100024661,2021-02-09 18:00,1.0,,,,53,32,85,,,,,,,
100024661,2021-02-09 19:00,1.0,,,,34,14,48,,,,,,,
100024661,2021-02-09 20:00,1.0,,,,17,7,24,,,,,,,
100024661,2021-02-09 21:00,1.0,,,,18,5,23,,,,,,,
100024661,2021-02-09 22:00,1.0,,,,9,6,15,,,,,,,
100024661,2021-02-09 23:00,1.0,,,,5,3,8,,,,,,,
100024661,2021-02-10 00:00,1.0,,,,1,0,1,,,,,,,
100024661,2021-02-10 01:00,1.0,,,,5,1,6,,,,,,,
100024661,2021-02-10 02:00,1.0,,,,1,0,1,,,,,,,
100024661,2021-02-10 03:00,1.0,,,,0,1,1,,,,,,,
100024661,2021-02-10 04:00,1.0,,,,0,0,0,,,,,,,
100024661,2021-02-10 05:00,1.0,,,,0,3,3,,,,,,,
100024661,2021-02-10 06:00,1.0,,,,10,7,17,,,,,,,
100024661,2021-02-10 07:00,1.0,,,,13,15,28,,,,,,,
100024661,2021-02-10 08:00,1.0,,,,47,54,101,,,,,,,
100024661,2021-02-10 09:00,1.0,,,,27,42,69,,,,,,,
100024661,2021-02-10 10:00,1.0,,,,22,16,38,,,,,,,
100024661,2021-02-10 11:00,1.0,,,,22,27,49,,,,,,,
100024661,2021-02-10 12:00,1.0,,,,35,25,60,,,,,,,
100024661,2021-02-10 13:00,1.0,,,,43,39,82,,,,,,,
100024661,2021-02-10 14:00,1.0,,,,52,36,88,,,,,,,
100024661,2021-02-10 15:00,1.0,,,,47,46,93,,,,,,,
100024661,2021-02-10 16:00,1.0,,,,45,46,91,,,,,,,
100024661,2021-02-10 17:00,1.0,,,,57,39,96,,,,,,,
100024661,2021-02-10 18:00,1.0,,,,65,46,111,,,,,,,
100024661,2021-02-10 19:00,1.0,,,,37,35,72,,,,,,,
100024661,2021-02-10 20:00,1.0,,,,33,23,56,,,,,,,
100024661,2021-02-10 21:00,1.0,,,,22,16,38,,,,,,,
100024661,2021-02-10 22:00,1.0,,,,15,9,24,,,,,,,
100024661,2021-02-10 23:00,1.0,,,,9,13,22,,,,,,,
100024661,2021-02-11 00:00,1.0,,,,1,1,2,,,,,,,
100024661,2021-02-11 01:00,1.0,,,,3,4,7,,,,,,,
100024661,2021-02-11 02:00,1.0,,,,3,1,4,,,,,,,
100024661,2021-02-11 03:00,1.0,,,,1,0,1,,,,,,,
100024661,2021-02-11 04:00,1.0,,,,1,1,2,,,,,,,
100024661,2021-02-11 05:00,1.0,,,,2,2,4,,,,,,,
100024661,2021-02-11 06:00,1.0,,,,7,8,15,,,,,,,
100024661,2021-02-11 07:00,1.0,,,,29,18,47,,,,,,,
100024661,2021-02-11 08:00,1.0,,,,56,62,118,,,,,,,
100024661,2021-02-11 09:00,1.0,,,,57,60,117,,,,,,,
100024661,2021-02-11 10:00,1.0,,,,39,32,71,,,,,,,
100024661,2021-02-11 11:00,1.0,,,,34,34,68,,,,,,,
100024661,2021-02-11 12:00,1.0,,,,36,34,70,,,,,,,
100024661,2021-02-11 13:00,1.0,,,,60,55,115,,,,,,,
100024661,2021-02-11 14:00,1.0,,,,55,36,91,,,,,,,
100024661,2021-02-11 15:00,1.0,,,,45,47,92,,,,,,,
100024661,2021-02-11 16:00,1.0,,,,56,50,106,,,,,,,
100024661,2021-02-11 17:00,1.0,,,,76,58,134,,,,,,,
100024661,2021-02-11 18:00,1.0,,,,70,71,141,,,,,,,
100024661,2021-02-11 19:00,1.0,,,,54,45,99,,,,,,,
100024661,2021-02-11 20:00,1.0,,,,27,38,65,,,,,,,
100024661,2021-02-11 21:00,1.0,,,,26,25,51,,,,,,,
100024661,2021-02-11 22:00,1.0,,,,17,19,36,,,,,,,
100024661,2021-02-11 23:00,1.0,,,,7,10,17,,,,,,,
100024661,2021-02-12 00:00,1.0,,,,3,2,5,,,,,,,
100024661,2021-02-12 01:00,1.0,,,,3,6,9,,,,,,,
100024661,2021-02-12 02:00,1.0,,,,1,1,2,,,,,,,
100024661,2021-02-12 03:00,1.0,,,,0,0,0,,,,,,,
100024661,2021-02-12 04:00,1.0,,,,4,3,7,,,,,,,
100024661,2021-02-12 05:00,1.0,,,,2,4,6,,,,,,,
100024661,2021-02-12 06:00,1.0,,,,9,13,22,,,,,,,
100024661,2021-02-12 07:00,1.0,,,,21,23,44,,,,,,,
100024661,2021-02-12 08:00,1.0,,,,62,64,126,,,,,,,
100024661,2021-02-12 09:00,1.0,,,,72,77,149,,,,,,,
100024661,2021-02-12 10:00,1.0,,,,32,54,86,,,,,,,
100024661,2021-02-12 11:00,1.0,,,,41,62,103,,,,,,,
100024661,2021-02-12 12:00,1.0,,,,54,66,120,,,,,,,
100024661,2021-02-12 13:00,1.0,,,,72,56,128,,,,,,,
100024661,2021-02-12 14:00,1.0,,,,88,82,170,,,,,,,
100024661,2021-02-12 15:00,1.0,,,,81,85,166,,,,,,,
100024661,2021-02-12 16:00,1.0,,,,86,62,148,,,,,,,
100024661,2021-02-12 17:00,1.0,,,,99,85,184,,,,,,,
100024661,2021-02-12 18:00,1.0,,,,74,72,146,,,,,,,
100024661,2021-02-12 19:00,1.0,,,,71,53,124,,,,,,,
100024661,2021-02-12 20:00,1.0,,,,44,41,85,,,,,,,
100024661,2021-02-12 21:00,1.0,,,,23,23,46,,,,,,,
100024661,2021-02-12 22:00,1.0,,,,24,17,41,,,,,,,
100024661,2021-02-12 23:00,1.0,,,,17,10,27,,,,,,,
100024661,2021-02-13 00:00,1.0,,,,14,14,28,,,,,,,
100024661,2021-02-13 01:00,1.0,,,,11,6,17,,,,,,,
100024661,2021-02-13 02:00,1.0,,,,5,3,8,,,,,,,
100024661,2021-02-13 03:00,1.0,,,,1,2,3,,,,,,,
100024661,2021-02-13 04:00,1.0,,,,2,4,6,,,,,,,
100024661,2021-02-13 05:00,1.0,,,,3,3,6,,,,,,,
100024661,2021-02-13 06:00,1.0,,,,12,3,15,,,,,,,
100024661,2021-02-13 07:00,1.0,,,,6,5,11,,,,,,,
100024661,2021-02-13 08:00,1.0,,,,14,4,18,,,,,,,
100024661,2021-02-13 09:00,1.0,,,,20,18,38,,,,,,,
100024661,2021-02-13 10:00,1.0,,,,27,29,56,,,,,,,
100024661,2021-02-13 11:00,1.0,,,,37,31,68,,,,,,,
100024661,2021-02-13 12:00,1.0,,,,56,57,113,,,,,,,
100024661,2021-02-13 13:00,1.0,,,,64,84,148,,,,,,,
100024661,2021-02-13 14:00,1.0,,,,67,77,144,,,,,,,
100024661,2021-02-13 15:00,1.0,,,,68,57,125,,,,,,,
100024661,2021-02-13 16:00,1.0,,,,78,63,141,,,,,,,
100024661,2021-02-13 17:00,1.0,,,,45,56,101,,,,,,,
100024661,2021-02-13 18:00,1.0,,,,44,43,87,,,,,,,
100024661,2021-02-13 19:00,1.0,,,,47,38,85,,,,,,,
100024661,2021-02-13 20:00,1.0,,,,24,33,57,,,,,,,
100024661,2021-02-13 21:00,1.0,,,,18,15,33,,,,,,,
100024661,2021-02-13 22:00,1.0,,,,23,16,39,,,,,,,
100024661,2021-02-13 23:00,1.0,,,,10,22,32,,,,,,,
100024661,2021-02-14 00:00,1.0,,,,4,10,14,,,,,,,
100024661,2021-02-14 01:00,1.0,,,,9,9,18,,,,,,,
100024661,2021-02-14 02:00,1.0,,,,5,7,12,,,,,,,
100024661,2021-02-14 03:00,1.0,,,,2,6,8,,,,,,,
100024661,2021-02-14 04:00,1.0,,,,4,2,6,,,,,,,
100024661,2021-02-14 05:00,1.0,,,,2,1,3,,,,,,,
100024661,2021-02-14 06:00,1.0,,,,5,0,5,,,,,,,
100024661,2021-02-14 07:00,1.0,,,,1,1,2,,,,,,,
100024661,2021-02-14 08:00,1.0,,,,3,2,5,,,,,,,
100024661,2021-02-14 09:00,1.0,,,,10,8,18,,,,,,,
100024661,2021-02-14 10:00,1.0,,,,18,10,28,,,,,,,
100024661,2021-02-14 11:00,1.0,,,,29,17,46,,,,,,,
100024661,2021-02-14 12:00,1.0,,,,43,40,83,,,,,,,
100024661,2021-02-14 13:00,1.0,,,,54,43,97,,,,,,,
100024661,2021-02-14 14:00,1.0,,,,45,64,109,,,,,,,
100024661,2021-02-14 15:00,1.0,,,,45,61,106,,,,,,,
100024661,2021-02-14 16:00,1.0,,,,54,59,113,,,,,,,
100024661,2021-02-14 17:00,1.0,,,,64,60,124,,,,,,,
100024661,2021-02-14 18:00,1.0,,,,49,33,82,,,,,,,
100024661,2021-02-14 19:00,1.0,,,,36,32,68,,,,,,,
100024661,2021-02-14 20:00,1.0,,,,21,23,44,,,,,,,
100024661,2021-02-14 21:00,1.0,,,,21,20,41,,,,,,,
100024661,2021-02-14 22:00,1.0,,,,11,12,23,,,,,,,
100024661,2021-02-14 23:00,1.0,,,,6,1,7,,,,,,,
100024661,2021-02-15 00:00,1.0,,,,4,4,8,,,,,,,
100024661,2021-02-15 01:00,1.0,,,,2,3,5,,,,,,,
100024661,2021-02-15 02:00,1.0,,,,0,2,2,,,,,,,
100024661,2021-02-15 03:00,1.0,,,,1,0,1,,,,,,,
100024661,2021-02-15 04:00,1.0,,,,2,4,6,,,,,,,
100024661,2021-02-15 05:00,1.0,,,,1,12,13,,,,,,,
100024661,2021-02-15 06:00,1.0,,,,13,24,37,,,,,,,
100024661,2021-02-15 07:00,1.0,,,,43,35,78,,,,,,,
100024661,2021-02-15 08:00,1.0,,,,87,100,187,,,,,,,
100024661,2021-02-15 09:00,1.0,,,,97,125,222,,,,,,,
100024661,2021-02-15 10:00,1.0,,,,56,74,130,,,,,,,
100024661,2021-02-15 11:00,1.0,,,,49,59,108,,,,,,,
100024661,2021-02-15 12:00,1.0,,,,56,46,102,,,,,,,
100024661,2021-02-15 13:00,1.0,,,,55,63,118,,,,,,,
100024661,2021-02-15 14:00,1.0,,,,84,67,151,,,,,,,
100024661,2021-02-15 15:00,1.0,,,,102,71,173,,,,,,,
100024661,2021-02-15 16:00,1.0,,,,118,65,183,,,,,,,
100024661,2021-02-15 17:00,1.0,,,,108,97,205,,,,,,,
100024661,2021-02-15 18:00,1.0,,,,109,100,209,,,,,,,
100024661,2021-02-15 19:00,1.0,,,,70,47,117,,,,,,,
100024661,2021-02-15 20:00,1.0,,,,45,31,76,,,,,,,
100024661,2021-02-15 21:00,1.0,,,,22,11,33,,,,,,,
100024661,2021-02-15 22:00,1.0,,,,13,10,23,,,,,,,
100024661,2021-02-15 23:00,1.0,,,,10,3,13,,,,,,,
100024661,2021-02-16 00:00,1.0,,,,7,2,9,,,,,,,
100024661,2021-02-16 01:00,1.0,,,,1,2,3,,,,,,,
100024661,2021-02-16 02:00,1.0,,,,1,1,2,,,,,,,
100024661,2021-02-16 03:00,1.0,,,,1,0,1,,,,,,,
100024661,2021-02-16 04:00,1.0,,,,0,2,2,,,,,,,
100024661,2021-02-16 05:00,1.0,,,,6,5,11,,,,,,,
100024661,2021-02-16 06:00,1.0,,,,13,14,27,,,,,,,
100024661,2021-02-16 07:00,1.0,,,,37,27,64,,,,,,,
100024661,2021-02-16 08:00,1.0,,,,71,81,152,,,,,,,
100024661,2021-02-16 09:00,1.0,,,,72,95,167,,,,,,,
100024661,2021-02-16 10:00,1.0,,,,47,53,100,,,,,,,
100024661,2021-02-16 11:00,1.0,,,,40,41,81,,,,,,,
100024661,2021-02-16 12:00,1.0,,,,62,44,106,,,,,,,
100024661,2021-02-16 13:00,1.0,,,,54,45,99,,,,,,,
100024661,2021-02-16 14:00,1.0,,,,67,55,122,,,,,,,
100024661,2021-02-16 15:00,1.0,,,,74,55,129,,,,,,,
100024661,2021-02-16 16:00,1.0,,,,98,63,161,,,,,,,
100024661,2021-02-16 17:00,1.0,,,,92,87,179,,,,,,,
100024661,2021-02-16 18:00,1.0,,,,112,123,235,,,,,,,
100024661,2021-02-16 19:00,1.0,,,,77,75,152,,,,,,,
100024661,2021-02-16 20:00,1.0,,,,42,44,86,,,,,,,
100024661,2021-02-16 21:00,1.0,,,,25,33,58,,,,,,,
100024661,2021-02-16 22:00,1.0,,,,20,29,49,,,,,,,
100024661,2021-02-16 23:00,1.0,,,,18,12,30,,,,,,,
100024661,2021-02-17 00:00,1.0,,,,12,6,18,,,,,,,
100024661,2021-02-17 01:00,1.0,,,,3,9,12,,,,,,,
100024661,2021-02-17 02:00,1.0,,,,0,3,3,,,,,,,
100024661,2021-02-17 03:00,1.0,,,,2,1,3,,,,,,,
100024661,2021-02-17 04:00,1.0,,,,1,3,4,,,,,,,
100024661,2021-02-17 05:00,1.0,,,,6,13,19,,,,,,,
100024661,2021-02-17 06:00,1.0,,,,16,19,35,,,,,,,
100024661,2021-02-17 07:00,1.0,,,,48,67,115,,,,,,,
100024661,2021-02-17 08:00,1.0,,,,117,161,278,,,,,,,
100024661,2021-02-17 09:00,1.0,,,,127,139,266,,,,,,,
100024661,2021-02-17 10:00,1.0,,,,73,100,173,,,,,,,
100024661,2021-02-17 11:00,1.0,,,,78,83,161,,,,,,,
100024661,2021-02-17 12:00,1.0,,,,74,87,161,,,,,,,
100024661,2021-02-17 13:00,1.0,,,,93,67,160,,,,,,,
100024661,2021-02-17 14:00,1.0,,,,108,85,193,,,,,,,
100024661,2021-02-17 15:00,1.0,,,,109,114,223,,,,,,,
100024661,2021-02-17 16:00,1.0,,,,120,97,217,,,,,,,
100024661,2021-02-17 17:00,1.0,,,,169,112,281,,,,,,,
100024661,2021-02-17 18:00,1.0,,,,168,154,322,,,,,,,
100024661,2021-02-17 19:00,1.0,,,,126,122,248,,,,,,,
100024661,2021-02-17 20:00,1.0,,,,79,58,137,,,,,,,
100024661,2021-02-17 21:00,1.0,,,,43,38,81,,,,,,,
100024661,2021-02-17 22:00,1.0,,,,31,33,64,,,,,,,
100024661,2021-02-17 23:00,1.0,,,,15,20,35,,,,,,,
100024661,2021-02-18 00:00,1.0,,,,8,13,21,,,,,,,
100024661,2021-02-18 01:00,1.0,,,,6,10,16,,,,,,,
100024661,2021-02-18 02:00,1.0,,,,4,4,8,,,,,,,
100024661,2021-02-18 03:00,1.0,,,,0,3,3,,,,,,,
100024661,2021-02-18 04:00,1.0,,,,3,3,6,,,,,,,
100024661,2021-02-18 05:00,1.0,,,,12,21,33,,,,,,,
100024661,2021-02-18 06:00,1.0,,,,21,54,75,,,,,,,
100024661,2021-02-18 07:00,1.0,,,,77,114,191,,,,,,,
100024661,2021-02-18 08:00,1.0,,,,173,295,468,,,,,,,
100024661,2021-02-18 09:00,1.0,,,,156,248,404,,,,,,,
100024661,2021-02-18 10:00,1.0,,,,121,152,273,,,,,,,
100024661,2021-02-18 11:00,1.0,,,,106,107,213,,,,,,,
100024661,2021-02-18 12:00,1.0,,,,150,125,275,,,,,,,
100024661,2021-02-18 13:00,1.0,,,,139,128,267,,,,,,,
100024661,2021-02-18 14:00,1.0,,,,144,151,295,,,,,,,
100024661,2021-02-18 15:00,1.0,,,,183,173,356,,,,,,,
100024661,2021-02-18 16:00,1.0,,,,231,155,386,,,,,,,
100024661,2021-02-18 17:00,1.0,,,,268,205,473,,,,,,,
100024661,2021-02-18 18:00,1.0,,,,279,259,538,,,,,,,
100024661,2021-02-18 19:00,1.0,,,,211,183,394,,,,,,,
100024661,2021-02-18 20:00,1.0,,,,107,86,193,,,,,,,
100024661,2021-02-18 21:00,1.0,,,,65,57,122,,,,,,,
100024661,2021-02-18 22:00,1.0,,,,41,39,80,,,,,,,
100024661,2021-02-18 23:00,1.0,,,,29,46,75,,,,,,,
100024661,2021-02-19 00:00,1.0,,,,18,22,40,,,,,,,
100024661,2021-02-19 01:00,1.0,,,,6,11,17,,,,,,,
100024661,2021-02-19 02:00,1.0,,,,5,5,10,,,,,,,
100024661,2021-02-19 03:00,1.0,,,,1,2,3,,,,,,,
100024661,2021-02-19 04:00,1.0,,,,4,4,8,,,,,,,
100024661,2021-02-19 05:00,1.0,,,,16,17,33,,,,,,,
100024661,2021-02-19 06:00,1.0,,,,24,34,58,,,,,,,
100024661,2021-02-19 07:00,1.0,,,,73,118,191,,,,,,,
100024661,2021-02-19 08:00,1.0,,,,141,240,381,,,,,,,
100024661,2021-02-19 09:00,1.0,,,,185,231,416,,,,,,,
100024661,2021-02-19 10:00,1.0,,,,113,136,249,,,,,,,
100024661,2021-02-19 11:00,1.0,,,,122,123,245,,,,,,,
100024661,2021-02-19 12:00,1.0,,,,154,147,301,,,,,,,
100024661,2021-02-19 13:00,1.0,,,,165,179,344,,,,,,,
100024661,2021-02-19 14:00,1.0,,,,174,170,344,,,,,,,
100024661,2021-02-19 15:00,1.0,,,,215,264,479,,,,,,,
100024661,2021-02-19 16:00,1.0,,,,240,232,472,,,,,,,
100024661,2021-02-19 17:00,1.0,,,,288,212,500,,,,,,,
100024661,2021-02-19 18:00,1.0,,,,238,211,449,,,,,,,
100024661,2021-02-19 19:00,1.0,,,,186,166,352,,,,,,,
100024661,2021-02-19 20:00,1.0,,,,113,110,223,,,,,,,
100024661,2021-02-19 21:00,1.0,,,,76,60,136,,,,,,,
100024661,2021-02-19 22:00,1.0,,,,32,40,72,,,,,,,
100024661,2021-02-19 23:00,1.0,,,,38,38,76,,,,,,,
100024661,2021-02-20 00:00,1.0,,,,26,39,65,,,,,,,
100024661,2021-02-20 01:00,1.0,,,,22,14,36,,,,,,,
100024661,2021-02-20 02:00,1.0,,,,16,18,34,,,,,,,
100024661,2021-02-20 03:00,1.0,,,,10,9,19,,,,,,,
100024661,2021-02-20 04:00,1.0,,,,6,7,13,,,,,,,
100024661,2021-02-20 05:00,1.0,,,,6,7,13,,,,,,,
100024661,2021-02-20 06:00,1.0,,,,11,7,18,,,,,,,
100024661,2021-02-20 07:00,1.0,,,,14,9,23,,,,,,,
100024661,2021-02-20 08:00,1.0,,,,32,18,50,,,,,,,